sat.trackr.live / text

‹ back to catalog

STARLINK-5305

NORAD 55314 · 2023-010AX

PAYLOAD ACTIVE UNKNOWN

§ Identity

Operator
Country
US
Launch date
2023-01-19
Launch site
AFWTR
Launch vehicle
Mass (kg)
RCS (m²)

Purposes: comms

External: N2YO · Heavens-Above · Gunter

§ Orbital elements

Epoch: 2026-09-20T22:00:03.000096Z

Period
95.28 min
Inclination
70.0002°
Eccentricity
0.0003420
Mean motion
15.11346627 rev/d
Perigee alt
529.7 km
Apogee alt
534.5 km
Semi-major
6,910.2 km
B*
2.9912e-3
RAAN
232.0414°
Arg perigee
257.5540°
Mean anomaly
323.7349°
Rev number
577

§ Raw data

STARLINK-53051 55314U 23010AX  26263.91670139  .00050803  00000+0  29912-2 0  99992 55314  70.0002 232.0414 0003420 257.5540 323.7349 15.11346627  5778

JSON: /api/v1/satellites/55314 · /tle

For live sub-satellite position, see the globe view (requires WebGL).

§ Visibility from observer

Set your observer location to see the next 7 days of passes ≥ 10°. The values pass through the URL so the page stays shareable.

No JS? Fill the form by hand. The geolocation button needs JavaScript.